N5KR Weather Reports


time (UTC)temp
C
wind
direction
speed
KPH
gust
KPH
rain 1hr
cm
rain 24hr
cm
rain mn
cm
humidity
%
barometer
mb
20260509054506 21 291 1.6 4.8 0.00 1.68 0.00 83 1011.2
20260509053507 21 293 0.0 4.8 0.00 1.68 0.00 82 1011.4
20260509053007 21 293 0.0 0.0 0.00 1.68 0.00 82 1011.3
20260509052506 21 293 0.0 0.0 0.00 1.68 0.00 81 1011.3
20260509051506 21 328 1.6 3.2 0.00 1.68 0.00 81 1012.2
20260509051006 21 344 1.6 11.3 0.00 1.68 0.00 81 1012.2
20260509050507 21 346 4.8 14.5 0.00 1.68 0.00 82 1011.7
20260509050006 21 262 0.0 4.8 0.00 1.68 0.00 81 1011.2
20260509045506 21 261 0.0 3.2 0.00 1.68 1.68 81 1010.8
20260509045006 21 190 3.2 9.7 0.00 1.68 1.68 81 1010.6
20260509044506 21 180 0.0 0.0 0.00 1.68 1.68 80 1010.4
20260509044006 21 180 1.6 9.7 0.00 1.68 1.68 80 1010.3
20260509043506 21 181 4.8 12.9 0.00 1.68 1.68 80 1010.1
20260509042506 22 188 8.0 14.5 0.00 1.68 1.68 79 1010.7
20260509042006 22 177 3.2 12.9 0.00 1.68 1.68 79 1010.5
20260509041506 22 170 4.8 11.3 0.00 1.68 1.68 78 1010.7
20260509041006 22 175 3.2 14.5 0.00 1.68 1.68 78 1010.4
20260509040506 22 166 9.7 19.3 0.00 1.68 1.68 78 1010.2
20260509040006 22 168 9.7 19.3 0.00 1.68 1.68 78 1010.4
20260509035007 22 158 4.8 11.3 0.00 1.68 1.68 78 1010.6
20260509034506 22 161 4.8 11.3 0.00 1.68 1.68 78 1011.1
20260509034006 22 155 0.0 0.0 0.00 1.68 1.68 78 1011.5
20260509033506 22 155 0.0 0.0 0.00 1.68 1.68 78 1011.4
20260509032506 22 155 0.0 3.2 0.00 1.68 1.68 78 1010.9
20260509032007 22 155 1.6 4.8 0.00 1.68 1.68 78 1010.8
20260509031506 22 155 0.0 0.0 0.00 1.68 1.68 78 1010.9
20260509031006 22 155 0.0 4.8 0.00 1.68 1.68 78 1010.8
20260509030506 22 155 3.2 4.8 0.00 1.68 1.68 78 1010.9
20260509030006 22 105 1.6 8.0 0.00 1.68 1.68 78 1010.9
20260509025506 22 132 1.6 9.7 0.00 1.68 1.68 78 1010.7
20260509024506 22 163 0.0 1.6 0.00 1.68 1.68 78 1010.4
20260509024006 22 163 0.0 3.2 0.00 1.68 1.68 78 1009.8
20260509023506 22 163 3.2 19.3 0.00 1.68 1.68 78 1009.6
20260509022506 22 176 8.0 19.3 0.00 1.68 1.68 78 1009.3
20260509022006 22 169 11.3 24.1 0.00 1.68 1.68 78 1009.2
20260509021506 22 179 9.7 19.3 0.00 1.68 1.68 78 1009.2
20260509021006 22 173 8.0 16.1 0.00 1.68 1.68 77 1009.3
20260509020506 22 176 8.0 14.5 0.00 1.68 1.68 77 1009.3
20260509020006 22 179 9.7 20.9 0.00 1.68 1.68 77 1009.1
20260509015505 22 167 11.3 20.9 0.00 1.68 1.68 76 1009.2
20260509015006 22 169 11.3 20.9 0.00 1.68 1.68 76 1009.2
20260509014506 22 174 9.7 19.3 0.00 1.68 1.68 76 1009.0
20260509014006 22 170 8.0 12.9 0.00 1.68 1.68 76 1009.1
20260509013506 22 173 6.4 12.9 0.00 1.68 1.68 76 1009.2
20260509013006 22 177 1.6 9.7 0.00 1.68 1.68 76 1009.1
20260509012505 22 169 4.8 12.9 0.00 1.68 1.68 76 1009.2
20260509012006 22 164 6.4 12.9 0.00 1.68 1.68 75 1009.2
20260509011006 22 177 8.0 12.9 0.00 1.68 1.68 75 1009.2
20260509010506 22 182 3.2 11.3 0.00 1.68 1.68 74 1009.1
20260509010006 22 182 4.8 12.9 0.00 1.68 1.68 74 1009.0
20260509005506 22 159 3.2 12.9 0.00 1.68 1.68 73 1009.0
20260509004505 23 156 11.3 19.3 0.00 1.68 1.68 73 1008.7
20260509004006 23 166 8.0 19.3 0.00 1.68 1.68 73 1008.7
20260509003505 23 178 12.9 20.9 0.00 1.68 1.68 72 1008.6
20260509002506 23 159 14.5 20.9 0.00 1.68 1.68 71 1008.6
20260509001506 23 187 6.4 20.9 0.00 1.68 1.68 71 1008.6
20260509001005 23 149 12.9 20.9 0.00 1.68 1.68 71 1008.6
20260509000505 23 178 8.0 22.5 0.00 1.68 1.68 70 1008.6
20260509000005 23 160 14.5 24.1 0.00 1.68 1.68 70 1008.7
20260508235006 23 169 14.5 24.1 0.00 1.68 1.68 70 1008.9
20260508234506 23 173 8.0 19.3 0.00 1.68 1.68 70 1009.0
20260508234006 23 176 11.3 19.3 0.00 1.68 1.68 70 1009.0
20260508233006 23 174 8.0 24.1 0.00 1.68 1.68 69 1009.0
20260508232505 23 188 16.1 20.9 0.00 1.68 1.68 68 1009.1
20260508232006 23 176 11.3 20.9 0.00 1.68 1.68 68 1009.1
20260508231505 24 187 9.7 16.1 0.00 1.68 1.68 68 1009.1
20260508231006 24 174 11.3 20.9 0.00 1.68 1.68 67 1009.1
20260508230006 24 188 8.0 19.3 0.00 1.68 1.68 68 1009.2
20260508225505 24 187 9.7 16.1 0.00 1.68 1.68 67 1009.2
20260508224505 24 175 8.0 16.1 0.00 1.68 1.68 67 1009.3
20260508223505 24 182 11.3 20.9 0.00 1.68 1.68 66 1009.2
20260508223005 25 175 8.0 22.5 0.00 1.68 1.68 66 1009.2
20260508222506 25 170 14.5 20.9 0.00 1.68 1.68 66 1009.2
20260508222005 25 187 11.3 19.3 0.00 1.68 1.68 65 1009.1
20260508221505 25 169 11.3 19.3 0.00 1.68 1.68 64 1009.0
20260508220505 25 176 11.3 20.9 0.00 1.68 1.68 65 1009.0
20260508220005 25 187 6.4 16.1 0.00 1.68 1.68 64 1009.1
20260508215506 25 171 4.8 14.5 0.00 1.68 1.68 65 1009.0
20260508215005 25 134 14.5 22.5 0.00 1.68 1.68 64 1009.0
20260508214006 25 166 11.3 27.4 0.00 1.68 1.68 64 1009.0
20260508213505 25 145 14.5 20.9 0.00 1.68 1.68 63 1009.1
20260508213006 25 171 14.5 24.1 0.00 1.68 1.68 62 1009.0
20260508211505 25 171 11.3 24.1 0.00 1.68 1.68 63 1009.2
20260508211005 25 144 12.9 20.9 0.00 1.68 1.68 62 1009.7
20260508210505 25 166 8.0 20.9 0.00 1.68 1.68 62 1009.9
20260508210005 25 183 12.9 20.9 0.00 1.68 1.68 63 1010.0
20260508205505 25 195 8.0 14.5 0.00 1.68 1.68 63 1010.1
20260508205005 24 233 6.4 16.1 0.00 1.68 1.68 65 1010.4
20260508204505 23 184 3.2 20.9 0.00 1.68 1.68 66 1010.6
20260508204006 23 182 6.4 19.3 0.00 1.68 1.68 66 1010.9
20260508203006 24 192 9.7 20.9 0.00 1.68 1.68 64 1011.0
20260508202505 24 193 8.0 20.9 0.00 1.68 1.68 64 1011.0
20260508202005 24 206 4.8 12.9 0.00 1.68 1.68 65 1010.9
20260508201505 24 195 4.8 14.5 0.00 1.68 1.68 64 1010.9
20260508201005 24 200 4.8 12.9 0.00 1.68 1.68 64 1011.1
20260508200505 25 191 6.4 20.9 0.00 1.68 1.68 63 1011.1
20260508195505 25 209 6.4 16.1 0.00 1.68 1.68 62 1011.1
20260508195006 25 188 6.4 14.5 0.00 1.68 1.68 62 1011.2
20260508194505 25 186 9.7 20.9 0.00 1.68 1.68 61 1011.2
20260508194005 25 181 9.7 20.9 0.00 1.68 1.68 62 1011.3
20260508193505 25 187 8.0 19.3 0.00 1.68 1.68 63 1011.4
20260508192505 25 188 8.0 16.1 0.00 1.68 1.68 61 1011.3
20260508191505 26 151 9.7 19.3 0.00 1.68 1.68 59 1011.5
20260508191005 25 185 8.0 22.5 0.00 1.68 1.68 58 1011.5
20260508190005 26 211 8.0 19.3 0.00 1.68 1.68 57 1011.5
20260508185505 26 182 8.0 19.3 0.00 1.68 1.68 59 1011.5
20260508185005 25 222 3.2 19.3 0.00 1.68 1.68 59 1011.4
20260508184004 25 160 12.9 20.9 0.00 1.68 1.68 58 1011.5
20260508183005 25 183 8.0 20.9 0.00 1.68 1.68 58 1011.8
20260508182505 25 229 4.8 11.3 0.00 1.68 1.68 58 1011.8
20260508180505 25 191 8.0 14.5 0.00 1.68 1.68 59 1012.2
20260508175505 25 188 4.8 12.9 0.00 1.68 1.68 60 1012.4
20260508175005 25 158 11.3 20.9 0.00 1.68 1.68 60 1012.4
20260508174505 24 185 11.3 20.9 0.00 1.68 1.68 61 1012.3
20260508174005 24 159 9.7 14.5 0.00 1.68 1.68 61 1012.4
20260508173505 23 107 4.8 20.9 0.00 1.68 1.68 60 1012.5
20260508173005 24 183 8.0 12.9 0.00 1.68 1.68 60 1012.5
20260508172505 23 154 6.4 16.1 0.00 1.68 1.68 60 1012.8
20260508172005 23 139 8.0 20.9 0.00 1.68 1.68 63 1013.0
20260508171004 23 186 8.0 11.3 0.00 1.68 1.68 62 1013.5
20260508170004 23 150 8.0 16.1 0.00 1.68 1.68 61 1013.6
20260508165505 23 158 8.0 20.9 0.00 1.68 1.68 62 1013.7
20260508165005 23 200 4.8 12.9 0.00 1.68 1.68 63 1013.9
20260508164005 22 200 9.7 16.1 0.00 1.68 1.68 62 1014.0
20260508163505 21 171 9.7 12.9 0.00 1.68 1.68 64 1014.0
20260508162505 22 215 8.0 14.5 0.00 1.68 1.68 65 1014.2
20260508162005 21 210 8.0 16.1 0.00 1.68 1.68 66 1014.3
20260508161504 20 188 3.2 12.9 0.00 1.68 1.68 69 1014.3
20260508161005 20 171 9.7 19.3 0.00 1.68 1.68 68 1014.3
20260508160505 20 167 8.0 16.1 0.00 1.68 1.68 69 1014.3
20260508160004 20 186 11.3 20.9 0.00 1.68 1.68 69 1014.4
20260508155505 20 175 14.5 20.9 0.00 1.68 1.68 68 1014.4
20260508155005 20 189 8.0 20.9 0.00 1.68 1.68 70 1014.5
20260508154504 20 168 8.0 20.9 0.00 1.68 1.68 70 1014.7
20260508154005 20 149 4.8 11.3 0.00 1.68 1.68 70 1014.8
20260508153505 20 167 9.7 16.1 0.00 1.68 1.68 69 1014.7
20260508152004 20 179 8.0 16.1 0.00 1.68 1.68 72 1014.7
20260508151504 19 178 8.0 12.9 0.00 1.68 1.68 72 1014.8
20260508150504 19 158 6.4 12.9 0.00 1.68 1.68 74 1014.7
20260508150005 19 176 6.4 14.5 0.00 1.68 1.68 74 1014.8
20260508145504 19 184 3.2 8.0 0.00 1.68 1.68 74 1014.8
20260508145004 19 172 8.0 12.9 0.00 1.68 1.68 75 1014.9
20260508144004 18 179 4.8 14.5 0.00 1.68 1.68 78 1014.8
20260508143504 18 181 1.6 11.3 0.00 1.68 1.68 79 1014.9
20260508143004 18 160 3.2 16.1 0.00 1.68 1.68 80 1014.9
20260508142504 18 167 8.0 14.5 0.00 1.68 1.68 81 1014.9
20260508142005 17 174 3.2 14.5 0.03 1.68 1.68 83 1014.9
20260508141505 17 145 1.6 4.8 0.03 1.68 1.68 84 1015.0
20260508141005 17 153 1.6 9.7 0.03 1.68 1.68 83 1015.1
20260508140505 17 162 6.4 16.1 0.03 1.68 1.68 85 1015.1
20260508140005 17 161 8.0 11.3 0.03 1.68 1.68 84 1015.1
20260508135005 17 103 1.6 8.0 0.08 1.68 1.68 87 1014.9
20260508134504 16 162 1.6 3.2 0.08 1.68 1.68 88 1015.0
20260508134005 16 162 3.2 11.3 0.15 1.68 1.68 88 1014.9
20260508133504 16 163 3.2 9.7 0.18 1.68 1.68 89 1014.8
20260508133005 16 161 4.8 8.0 0.18 1.68 1.68 90 1015.0
20260508132504 16 155 3.2 11.3 0.18 1.68 1.68 90 1014.9
20260508132005 16 173 3.2 11.3 0.15 1.63 1.63 91 1015.0
20260508131504 15 176 4.8 8.0 0.18 1.63 1.63 92 1015.0
20260508131004 15 145 0.0 0.0 0.18 1.63 1.63 92 1014.9
20260508130504 15 145 0.0 0.0 0.18 1.63 1.63 92 1015.1
20260508130004 15 145 0.0 0.0 0.18 1.63 1.63 91 1014.9
20260508125505 15 145 0.0 3.2 0.15 1.60 1.60 91 1015.5
20260508125004 15 179 0.0 1.6 0.13 1.57 1.57 91 1015.5
20260508124504 15 179 1.6 4.8 0.13 1.57 1.57 91 1015.0
20260508124004 15 179 1.6 4.8 0.05 1.52 1.52 91 1015.0
20260508123504 15 179 1.6 4.8 0.03 1.50 1.50 90 1015.6
20260508123004 15 180 1.6 3.2 0.03 1.50 1.50 90 1015.6
20260508122004 15 179 0.0 1.6 0.03 1.50 1.50 90 1015.3
20260508121504 15 197 1.6 11.3 0.00 1.45 1.45 90 1015.3
20260508121004 15 178 8.0 11.3 0.13 1.45 1.45 90 1015.1
20260508120504 15 184 8.0 14.5 0.25 1.45 1.45 91 1015.1
20260508115504 15 175 11.3 16.1 0.43 1.45 1.45 92 1015.1
20260508115004 15 172 8.0 11.3 0.51 1.45 1.45 92 1015.4
20260508114504 15 172 4.8 11.3 0.51 1.45 1.45 92 1015.0
20260508114004 15 138 8.0 11.3 0.51 1.45 1.45 92 1014.8
20260508113004 15 170 3.2 11.3 0.51 1.45 1.45 93 1014.8
20260508112504 15 165 3.2 8.0 0.51 1.45 1.45 93 1015.1
20260508112004 15 165 4.8 8.0 0.53 1.45 1.45 92 1014.9
20260508111004 15 119 1.6 8.0 0.76 1.35 1.35 92 1014.7
20260508110504 15 133 3.2 8.0 0.66 1.19 1.19 92 1015.1
20260508110004 15 157 0.0 0.0 0.53 1.04 1.04 92 1015.5
20260508105504 16 264 0.0 0.0 0.51 1.02 1.02 92 1016.0
20260508105004 15 264 0.0 4.8 0.43 0.97 0.97 92 1015.7
20260508104004 15 140 1.6 8.0 0.43 0.97 0.97 92 1015.0
20260508103503 15 16 1.6 4.8 0.43 0.97 0.97 92 1015.6
20260508103004 15 138 0.0 3.2 0.43 0.97 0.97 92 1014.9
20260508102504 15 138 1.6 4.8 0.43 0.97 0.97 91 1014.4
20260508102004 15 138 1.6 8.0 0.41 0.94 0.94 91 1014.5
20260508101004 15 201 3.2 12.9 0.05 0.58 0.58 91 1014.2
20260508100504 15 186 4.8 12.9 0.03 0.53 0.53 91 1014.0
20260508100004 15 169 4.8 11.3 0.03 0.53 0.53 91 1014.0
20260508095504 15 204 3.2 8.0 0.03 0.53 0.53 92 1014.1
20260508095003 15 342 3.2 4.8 0.03 0.53 0.53 92 1014.2
20260508094004 15 342 0.0 1.6 0.03 0.53 0.53 91 1014.4
20260508093504 15 342 0.0 1.6 0.03 0.53 0.53 91 1014.2
20260508093004 15 342 0.0 3.2 0.03 0.53 0.53 91 1014.3
20260508092504 15 342 0.0 1.6 0.03 0.53 0.53 91 1014.5
20260508091504 15 342 1.6 4.8 0.08 0.53 0.53 91 1014.3
20260508091004 15 342 3.2 8.0 0.08 0.53 0.53 91 1014.4
20260508090004 15 342 0.0 0.0 0.13 0.51 0.51 90 1014.5
20260508085504 15 342 0.0 1.6 0.33 0.51 0.51 90 1014.8
20260508085004 15 342 0.0 0.0 0.51 0.51 0.51 90 1014.9
20260508084504 15 342 0.0 1.6 0.51 0.51 0.51 90 1015.3
20260508084004 15 342 1.6 8.0 0.51 0.51 0.51 89 1015.3
20260508083504 15 112 0.0 3.2 0.51 0.51 0.51 89 1014.6
20260508083004 15 112 4.8 14.5 0.51 0.51 0.51 88 1014.0
20260508082504 15 131 8.0 16.1 0.51 0.51 0.51 89 1014.5
20260508082004 15 132 4.8 9.7 0.46 0.46 0.46 89 1015.1
20260508081504 15 116 0.0 0.0 0.43 0.43 0.43 88 1015.5
20260508081004 15 116 0.0 0.0 0.43 0.43 0.43 87 1015.3
20260508080503 16 116 0.0 0.0 0.43 0.43 0.43 86 1015.5
20260508080004 16 116 1.6 4.8 0.38 0.38 0.38 83 1015.5
20260508075506 17 106 1.6 8.0 0.18 0.18 0.18 77 1016.2
20260508074507 17 209 0.0 0.0 0.00 0.00 0.00 76 1016.2
20260508074006 17 159 0.0 0.0 0.00 0.00 0.00 76 1016.3
20260508073507 16 159 0.0 0.0 0.00 0.00 0.00 76 1016.0
20260508073006 16 159 0.0 0.0 0.00 0.00 0.00 76 1015.6
20260508071006 16 159 1.6 1.6 0.00 0.00 0.00 75 1015.8
20260508070006 16 159 0.0 0.0 0.00 0.00 0.00 75 1015.7
20260508065006 16 159 1.6 3.2 0.00 0.00 0.00 75 1015.8
20260508064506 16 159 0.0 0.0 0.00 0.00 0.00 74 1016.0
20260508064006 16 159 0.0 0.0 0.00 0.00 0.00 74 1016.3
20260508063506 17 159 0.0 0.0 0.00 0.00 0.00 74 1016.3
20260508063006 17 159 0.0 0.0 0.00 0.00 0.00 73 1016.4
20260508062506 17 159 0.0 8.0 0.00 0.00 0.00 73 1016.4
20260508062006 17 159 4.8 9.7 0.00 0.00 0.00 73 1016.3
20260508061506 16 159 3.2 9.7 0.00 0.00 0.00 74 1016.4
20260508060507 16 159 0.0 0.0 0.00 0.00 0.00 74 1016.3
20260508060007 16 159 0.0 0.0 0.00 0.00 0.00 75 1016.3
20260508055006 16 159 0.0 0.0 0.00 0.00 0.00 75 1016.2